Location: Henau
(47.4548°N, 9.1164°E)
Time: 23:35:51
(UTC+00:00)

FALCON 9 DEB - Pass Details

Date: 03 March 2021
Orbit: 370 x 389 km, 53.0° (Epoch: 20 April)

Event Time Altitude Azimuth Distance (km) Brightness Sun altitude
Rises 18:13:05 0° 284° (WNW) 2,312 8.7 -11.2°
Reaches altitude 10° 18:15:20 10° 296° (WNW) 1,455 6.9 -11.6°
Maximum altitude 18:18:14 29° 359° (N) 771 4.4 -12.0°
Enters shadow 18:20:18 15° 53° (NE) 1,170 4.9 -12.4°
